Location: Chippewa Lake
(41.0698°N, 81.9010°W)
Time: 02:02:24
(UTC+00:00)

MetOp-A - Pass Details

Date: 09 May 2021
Orbit: 820 x 821 km, 98.5° (Epoch: 24 June)

Event Time Altitude Azimuth Distance (km) Brightness Sun altitude
Rises 01:02:41 0° 165° (SSE) 3,337 6.9 -6.0°
Reaches altitude 10° 01:05:01 10° 166° (SSE) 2,409 6.2 -6.3°
Maximum altitude 01:10:22 88° 257° (WSW) 827 4.2 -7.2°
Drops below altitude 10° 01:15:46 10° 346° (NNW) 2,426 7.3 -8.1°
Sets 01:18:07 0° 347° (NNW) 3,362 8.1 -8.5°
